![]() |
EMODnet Physics ERDDAP
Easier access to scientific data |
log in|
Brought to you by EMODnet Physics |
| Dataset Title: | NDBC - Collection of dew point temperature (DEWT) TimeSeries - IN SITU MultiPointTimeSeriesObservation
|
| Institution: | NDBC (Dataset ID: TS_DEWT_NDBC) |
| Information: | Summary
| License
| FGDC
| ISO 19115
| Metadata
| Background
| Subset
| Data Access Form
| Make a graph
|
| Name | Last modified | Size | Description | |
|---|---|---|---|---|
| Parent Directory | - | - | ||
| PVDR1_TS_DEWT_012017.nc | 11-Dec-2024 14:37 | 429497 | ||
| PVDR1_TS_DEWT_012018.nc | 11-Dec-2024 14:45 | 429494 | ||
| PVDR1_TS_DEWT_012019.nc | 11-Dec-2024 14:52 | 429496 | ||
| PVDR1_TS_DEWT_012020.nc | 11-Dec-2024 14:58 | 429497 | ||
| PVDR1_TS_DEWT_012021.nc | 11-Dec-2024 15:06 | 429494 | ||
| PVDR1_TS_DEWT_012022.nc | 11-Dec-2024 15:15 | 429492 | ||
| PVDR1_TS_DEWT_022017.nc | 11-Dec-2024 14:38 | 429491 | ||
| PVDR1_TS_DEWT_022018.nc | 11-Dec-2024 14:45 | 421582 | ||
| PVDR1_TS_DEWT_022019.nc | 11-Dec-2024 14:53 | 429496 | ||
| PVDR1_TS_DEWT_022020.nc | 11-Dec-2024 14:59 | 429492 | ||
| PVDR1_TS_DEWT_022021.nc | 11-Dec-2024 15:07 | 429495 | ||
| PVDR1_TS_DEWT_022022.nc | 11-Dec-2024 15:16 | 429499 | ||
| PVDR1_TS_DEWT_032017.nc | 11-Dec-2024 14:39 | 429489 | ||
| PVDR1_TS_DEWT_032018.nc | 11-Dec-2024 14:46 | 429496 | ||
| PVDR1_TS_DEWT_032019.nc | 11-Dec-2024 14:54 | 427496 | ||
| PVDR1_TS_DEWT_032020.nc | 11-Dec-2024 14:59 | 429489 | ||
| PVDR1_TS_DEWT_032021.nc | 11-Dec-2024 15:08 | 429496 | ||
| PVDR1_TS_DEWT_042017.nc | 11-Dec-2024 14:39 | 429494 | ||
| PVDR1_TS_DEWT_042018.nc | 11-Dec-2024 14:47 | 429493 | ||
| PVDR1_TS_DEWT_042019.nc | 11-Dec-2024 14:54 | 429602 | ||
| PVDR1_TS_DEWT_042020.nc | 11-Dec-2024 15:00 | 429605 | ||
| PVDR1_TS_DEWT_042021.nc | 11-Dec-2024 15:08 | 429599 | ||
| PVDR1_TS_DEWT_052017.nc | 11-Dec-2024 14:40 | 429611 | ||
| PVDR1_TS_DEWT_052018.nc | 11-Dec-2024 14:47 | 429582 | ||
| PVDR1_TS_DEWT_052019.nc | 11-Dec-2024 14:55 | 429618 | ||
| PVDR1_TS_DEWT_052020.nc | 11-Dec-2024 15:00 | 429584 | ||
| PVDR1_TS_DEWT_052021.nc | 11-Dec-2024 15:09 | 425953 | ||
| PVDR1_TS_DEWT_062017.nc | 11-Dec-2024 14:41 | 429620 | ||
| PVDR1_TS_DEWT_062018.nc | 11-Dec-2024 14:48 | 429597 | ||
| PVDR1_TS_DEWT_062020.nc | 11-Dec-2024 15:01 | 429620 | ||
| PVDR1_TS_DEWT_062021.nc | 11-Dec-2024 15:10 | 429613 | ||
| PVDR1_TS_DEWT_072017.nc | 11-Dec-2024 14:41 | 429612 | ||
| PVDR1_TS_DEWT_072018.nc | 11-Dec-2024 14:48 | 429623 | ||
| PVDR1_TS_DEWT_072020.nc | 11-Dec-2024 15:02 | 429624 | ||
| PVDR1_TS_DEWT_072021.nc | 11-Dec-2024 15:11 | 429613 | ||
| PVDR1_TS_DEWT_072022.nc | 11-Dec-2024 15:19 | 429618 | ||
| PVDR1_TS_DEWT_082017.nc | 11-Dec-2024 14:42 | 429624 | ||
| PVDR1_TS_DEWT_082018.nc | 11-Dec-2024 14:49 | 429611 | ||
| PVDR1_TS_DEWT_082019.nc | 11-Dec-2024 14:55 | 429840 | ||
| PVDR1_TS_DEWT_082020.nc | 11-Dec-2024 15:03 | 429836 | ||
| PVDR1_TS_DEWT_082021.nc | 11-Dec-2024 15:11 | 429833 | ||
| PVDR1_TS_DEWT_082022.nc | 11-Dec-2024 15:20 | 429840 | ||
| PVDR1_TS_DEWT_082023.nc | 11-Dec-2024 15:28 | 429835 | ||
| PVDR1_TS_DEWT_092017.nc | 11-Dec-2024 14:42 | 429821 | ||
| PVDR1_TS_DEWT_092018.nc | 11-Dec-2024 14:50 | 429838 | ||
| PVDR1_TS_DEWT_092019.nc | 11-Dec-2024 14:55 | 429833 | ||
| PVDR1_TS_DEWT_092020.nc | 11-Dec-2024 15:04 | 429836 | ||
| PVDR1_TS_DEWT_092021.nc | 11-Dec-2024 15:12 | 429836 | ||
| PVDR1_TS_DEWT_092022.nc | 11-Dec-2024 15:21 | 429836 | ||
| PVDR1_TS_DEWT_092023.nc | 11-Dec-2024 15:29 | 429839 | ||
| PVDR1_TS_DEWT_102016.nc | 11-Dec-2024 14:35 | 429836 | ||
| PVDR1_TS_DEWT_102017.nc | 11-Dec-2024 14:43 | 429838 | ||
| PVDR1_TS_DEWT_102018.nc | 11-Dec-2024 14:50 | 429815 | ||
| PVDR1_TS_DEWT_102019.nc | 11-Dec-2024 14:56 | 429836 | ||
| PVDR1_TS_DEWT_102020.nc | 11-Dec-2024 15:04 | 429707 | ||
| PVDR1_TS_DEWT_102021.nc | 11-Dec-2024 15:13 | 429834 | ||
| PVDR1_TS_DEWT_102022.nc | 11-Dec-2024 15:21 | 429840 | ||
| PVDR1_TS_DEWT_102023.nc | 11-Dec-2024 15:29 | 429605 | ||
| PVDR1_TS_DEWT_112016.nc | 11-Dec-2024 14:36 | 429600 | ||
| PVDR1_TS_DEWT_112017.nc | 11-Dec-2024 14:43 | 429603 | ||
| PVDR1_TS_DEWT_112018.nc | 11-Dec-2024 14:51 | 429621 | ||
| PVDR1_TS_DEWT_112019.nc | 11-Dec-2024 14:57 | 428773 | ||
| PVDR1_TS_DEWT_112020.nc | 11-Dec-2024 15:05 | 429617 | ||
| PVDR1_TS_DEWT_112021.nc | 11-Dec-2024 15:14 | 428116 | ||
| PVDR1_TS_DEWT_112022.nc | 11-Dec-2024 15:22 | 429603 | ||
| PVDR1_TS_DEWT_112023.nc | 11-Dec-2024 15:30 | 429611 | ||
| PVDR1_TS_DEWT_122016.nc | 11-Dec-2024 14:36 | 429612 | ||
| PVDR1_TS_DEWT_122017.nc | 11-Dec-2024 14:44 | 429619 | ||
| PVDR1_TS_DEWT_122018.nc | 11-Dec-2024 14:52 | 429615 | ||
| PVDR1_TS_DEWT_122019.nc | 11-Dec-2024 14:57 | 429612 | ||
| PVDR1_TS_DEWT_122020.nc | 11-Dec-2024 15:06 | 429623 | ||
| PVDR1_TS_DEWT_122021.nc | 11-Dec-2024 15:14 | 429617 | ||
| PVDR1_TS_DEWT_122022.nc | 11-Dec-2024 15:23 | 429614 | ||
| PVDR1_TS_DEWT_122023.nc | 11-Dec-2024 15:31 | 429600 | ||